Racecast

Medina Cross Country Festival

Ella Canavan Elementary · 5000m · Girls · Open · 2019-10-05 · OH

Course difficulty: +0.012

Race-day weather: 49°F · wind 29 mph · humidity 70%

View full meet →

Team scores

Place Team Points 12345 67
1 Medina (OH) 27 1 4 6 7 9 11 12
2 Wadsworth (OH) 77 5 15 18 19 20 27 42
3 Rocky River (OH) 111 2 17 21 31 40 56
4 No. Royalton (OH) 116 8 13 28 29 38 49 51
5 Chardon (OH) 126 3 14 23 34 52 59 63
6 Brecksville (OH) 131 10 16 25 36 44 58 66
7 Hoover (OH) 171 26 32 33 39 41 43 46
8 Med Highland (OH) 191 22 24 47 48 50 62 80
9 Green (OH) 280 37 54 57 61 71 87 91
10 Mentor (OH) 307 30 45 74 77 84 86 95
11 Madison (OH) 311 35 53 70 76 79 81 89
12 Westlake (OH) 324 55 60 64 68 73 78 88
13 Nordonia (OH) 357 65 67 69 75 83 92
14 Eastlake North (OH) 420 72 82 85 90 93 94

As scored by the meet.

Results

Place Athlete Grade School Time Rating Points
1 Alex Henry 10 Medina (OH) 1 21:38.5 PR 115.1 1
2 Iris Polly 9 Rocky River (OH) 1 21:56.4 PR 113.6 2
3 Caitlyn Goodrich 12 Chardon (OH) 1 22:01.3 SR 113.1 3
4 Abigail Gehman 11 Medina (OH) 2 22:06.3 PR 112.7 4
5 Marissa Freidl 9 Wadsworth (OH) 1 22:07.4 PR 5
6 Janelle Gehman 9 Medina (OH) 3 22:08.9 PR 112.5 6
7 Colleen Smith 11 Medina (OH) 4 22:10.6 PR 112.3 7
8 Natalie Rayer 11 No. Royalton (OH) 1 22:14.6 PR 112.0 8
9 Caroline Keller 10 Medina (OH) 5 22:15.4 PR 111.9 9
10 Scarlett Carey 9 Brecksville (OH) 1 22:22.4 PR 111.4 10
11 Julia Smith 9 Medina (OH) 6 22:22.5 PR 111.4 11
12 Lucy O'cull 11 Medina (OH) 7 22:26.2 SR 111.1 12
13 Sophia Puleo 10 No. Royalton (OH) 2 22:31.5 PR 110.6 13
14 Alysen Dwyer 11 Medina (OH) 8 22:33 SR 110.5
15 Mary Thomas 11 Parma Senior (OH) 1 22:41.2 SR 109.8
16 Elizabeth McKnight 9 Chardon (OH) 2 22:45 PR 109.5 14
17 Mia Ross 11 Wadsworth (OH) 2 22:48.4 PR 109.2 15
18 Kenzie Mounir 11 Brecksville (OH) 2 22:48.6 PR 109.2 16
19 Saraa Abuzahrieh 10 Rocky River (OH) 2 22:49.2 PR 109.2 17
20 Lilah Nye 11 Wadsworth (OH) 3 22:49.8 PR 109.1 18
21 Nyla Patterson 10 Wadsworth (OH) 4 22:50.5 SR 109.1 19
22 Amelia Swires 9 Wadsworth (OH) 5 22:51.2 PR 109.0 20
23 Kelsey Norris 11 Medina (OH) 9 22:51.8 PR 109.0
24 Natalie Wolanin 12 Medina (OH) 10 22:52.1 PR 109.0
25 Anna Rouphail 9 Rocky River (OH) 3 22:52.7 PR 108.9 21
26 Sidney Rischmiller 10 Med Highland (OH) 1 22:56.2 PR 108.6 22
27 Ella McCloskey 9 Chardon (OH) 3 22:58.4 PR 108.5 23
28 Gaby Miller 10 Med Highland (OH) 2 23:01.3 PR 108.2 24
29 Jenna Dixon 9 Parma Senior (OH) 2 23:03.1 PR 108.1
30 Ashley Patel 10 Brecksville (OH) 3 23:05.2 PR 107.9 25
31 Cassie Grimm 9 Hoover (OH) 1 23:08.4 PR 107.7 26
32 Caitlyn Kittle 12 Wadsworth (OH) 6 23:09 PR 107.6 27
33 Amanda Ruffner 10 No. Royalton (OH) 3 23:11.9 PR 107.4 28
34 Marie Zantopulos 10 No. Royalton (OH) 4 23:12.2 PR 107.4 29
35 Alison Warner 11 Mentor (OH) 1 23:24.5 SR 106.4 30
36 Kelly Foster 9 Rocky River (OH) 4 23:25.1 PR 106.4 31
37 Ashley Kelly 10 Hoover (OH) 2 23:25.4 PR 106.4 32
38 Katie Mone 11 Medina (OH) 11 23:40.1 SR 105.3
39 Bella Andrews 10 Hoover (OH) 3 23:40.6 PR 105.2 33
40 Leah Ward 10 Chardon (OH) 4 23:44.8 PR 104.9 34
41 Anna Bresler 9 Medina (OH) 12 23:46.6 PR 104.8
42 Gracie Schlifke 12 Madison (ID) 1 23:48.6 SR 104.7 35
43 Abby McKee 11 Medina (OH) 13 23:49 PR 104.6
44 Carly Ramunni 9 Medina (OH) 14 23:49.2 PR 104.6
45 Genevieve Ruth 9 Brecksville (OH) 4 23:49.8 PR 104.6 36
46 Caitie Payne 10 Green (OH) 1 23:51.4 PR 104.4 37
47 Julianna Watrobski 11 No. Royalton (OH) 5 23:59.2 PR 103.9 38
48 Xiaole Yu 10 Hoover (OH) 4 24:00 PR 103.8 39
49 Sadie Nolan 9 Rocky River (OH) 5 24:04.7 PR 103.5 40
50 Aubree Neura 9 Medina (OH) 15 24:05.1 103.4
51 Kelsey Yocum 12 Hoover (OH) 5 24:07.9 PR 103.2 41
52 Tiffany GAL 9 Wadsworth (OH) 7 24:08.2 PR 103.2 42
53 Faith Pavkov 9 Hoover (OH) 6 24:10.5 PR 43
54 Sarah House 12 Wadsworth (OH) 8 24:15 PR 102.8
55 Mikayla Salindo 12 Brecksville (OH) 5 24:16.3 SR 102.7 44
56 Kathryn Kilpeck 10 Mentor (OH) 2 24:16.8 PR 102.6 45
57 Amelia Palombo 11 Hoover (OH) 7 24:17.2 PR 102.6 46
58 Samantha Tripi 9 Medina (OH) 16 24:18.1 PR 102.5
59 Grace Bazan 12 Med Highland (OH) 3 24:19.5 SR 102.4 47
60 Lauren Paulus 11 Med Highland (OH) 4 24:19.6 PR 102.4 48
61 Torie Reimer 9 No. Royalton (OH) 6 24:20.3 PR 102.4 49
62 Alyssa Sheridan 11 Med Highland (OH) 5 24:23 SR 102.2 50
63 Lindsey Wu 12 No. Royalton (OH) 7 24:27.3 PR 101.9 51
64 Cecelia Henderson 9 Chardon (OH) 5 24:30.4 PR 101.7 52
65 Marianna Short 10 Wadsworth (OH) 9 24:30.5 SR 101.7
66 Abby Acierto 9 Medina (OH) 17 24:31.3 PR 101.6
67 Hope Hageman 11 Wadsworth (OH) 10 24:31.8 PR 101.6
68 Rebecca Sabo 9 Madison (ID) 2 24:32.4 101.5 53
69 Chase LaChance 9 Hoover (OH) 8 24:33.1 PR 101.5
70 Rhiannon Blaine 11 Hoover (OH) 9 24:33.5 PR 101.5
71 Olivia Woods 11 Green (OH) 2 24:34.3 PR 101.4 54
72 Emily Templeton 12 Westlake (CA) 1 24:34.9 PR 101.4 55
73 Amani Salti 11 Rocky River (OH) 6 24:35.4 PR 101.3 56
74 Ellie Robson 11 Green (OH) 3 24:35.6 SR 101.3 57
75 Clare Thompson 9 Brecksville (OH) 6 24:36.3 PR 101.3 58
76 Maddy Hawks 11 Hoover (OH) 10 24:41.1 PR 100.9
77 Grace Lightner 10 Hoover (OH) 11 24:42.4 PR 100.8
78 Jordan Cvelbar 9 Chardon (OH) 6 24:43.3 PR 100.8 59
79 Brenna McFadden 12 Westlake (CA) 2 24:43.9 PR 100.8 60
80 Kali Angerstien 9 Green (OH) 4 24:45.6 PR 100.6 61
81 Penelope Castillo 11 Med Highland (OH) 6 24:49.1 PR 100.4 62
82 Danielle Cheff 12 Wadsworth (OH) 11 24:49.4 100.4
83 Andzeli Malkowski 12 Parma Senior (OH) 3 24:49.8 PR 100.3
84 Olivia Herrington 12 Wadsworth (OH) 12 24:50.1 PR 100.3
85 Delaney Devine 10 Chardon (OH) 7 24:53.1 PR 100.1 63
86 Samantha Farabaugh 12 Westlake (CA) 3 24:57.7 PR 99.8 64
87 Ella Pendelton 9 Nordonia (OH) 1 25:01 PR 99.6 65
88 Jenny Wellert 11 Wadsworth (OH) 13 25:03.1 PR 99.5
89 Chloe Feeney 10 Brecksville (OH) 7 25:04.1 PR 99.4 66
90 Meg Picoult 9 Nordonia (OH) 2 25:05.3 PR 99.3 67
91 Alexandra Fernandez 11 Westlake (CA) 4 25:05.6 SR 99.3 68
92 Kat Gillespie 10 Nordonia (OH) 3 25:10.4 PR 99.0 69
93 Lily Martin 11 Hoover (OH) 12 25:11.5 SR 98.9
94 Aubrey Sumrow 10 Madison (ID) 3 25:12.1 98.9 70
95 Maddie Kerr 11 Medina (OH) 18 25:15.9 PR 98.6
96 Jalyn Miller 10 Medina (OH) 19 25:16.3 SR 98.6
97 Cassidy Arbuthnot 12 Green (OH) 5 25:16.4 SR 98.6 71
98 Kyra Apger 9 Eastlake North (OH) 1 25:18.4 PR 98.5 72
99 Sarah Jones 9 Hoover (OH) 13 25:20.4 PR 98.3
100 Alex Sowul 10 Wadsworth (OH) 14 25:24.5 PR 98.1
101 Eva Stipanovich 10 Westlake (CA) 5 25:24.5 PR 98.1 73
102 Gabby Raatz 10 Wadsworth (OH) 15 25:28.7 SR 97.8
103 Kayla Gromek 11 Mentor (OH) 3 25:32.3 97.6 74
104 Paige Stewart 12 Brecksville (OH) 8 25:34.3 PR 97.4
105 Rachel Kellner 12 Wadsworth (OH) 16 25:35.1 97.4
106 Mackenzie Wright 12 Hoover (OH) 14 25:36.3 SR 97.3
107 Victoria Puff 10 Nordonia (OH) 4 25:37.3 PR 97.2 75
108 Olivia Blake 9 Madison (ID) 4 25:37.6 97.2 76
109 Sarah Hughes 9 Hoover (OH) 15 25:40.8 PR 97.0
110 Torri Paveloi 10 Hoover (OH) 16 25:42 PR 96.9
111 Hannah Neiger 10 Medina (OH) 20 25:43.4 PR 96.9
112 Lillian English 12 Mentor (OH) 4 25:52.3 SR 96.3 77
113 Katherine Roberts 9 Medina (OH) 21 25:53.4 PR 96.2
114 Kaylee Kinn 12 Medina (OH) 22 25:56 PR 96.1
115 Olivia Pedone 9 Hoover (OH) 17 26:02.6 PR 95.7
116 Moira McCarthy 11 Westlake (CA) 6 26:03.1 PR 95.6 78
117 Sidney Chaffee 11 Madison (ID) 5 26:05.9 95.5 79
118 Georgia Arsic 9 No. Royalton (OH) 8 26:06.9 PR 95.4
119 Mikalina Fisher 10 Med Highland (OH) 7 26:07.1 PR 95.4 80
120 Meredith Good 9 Med Highland (OH) 8 26:08 PR 95.3
121 Michelle Hawk 11 Wadsworth (OH) 17 26:20.8 94.6
122 Michayla Hurst 9 Madison (ID) 6 26:25.7 PR 94.3 81
123 Mehak Khatri 10 Medina (OH) 23 26:26.2 PR 94.2
124 Anna Burns 10 Medina (OH) 24 26:27.9 PR 94.2
125 Gabby Quallich 11 Medina (OH) 25 26:32.7 SR 93.9
126 Abby Richardson 11 Eastlake North (OH) 2 26:41.2 93.4 82
127 Emilly Grassa 9 Nordonia (OH) 5 26:44.1 PR 93.2 83
128 Mira Patel 11 No. Royalton (OH) 9 26:47.4 PR 93.0
129 Kennedy Gotham 11 No. Royalton (OH) 10 26:48.3 PR 92.9
130 Lainey Capel 9 Mentor (OH) 5 26:50 92.9 84
131 Faith Mask 11 Hoover (OH) 18 26:54.5 PR 92.6
132 Sierra Hickman 12 Eastlake North (OH) 3 26:55.7 PR 92.5 85
133 Jessica Bangerter 10 Mentor (OH) 6 26:58.6 PR 92.4 86
134 Jenna Geary 11 Green (OH) 6 27:02.9 PR 92.1 87
135 Olivia Maschke 11 Med Highland (OH) 9 27:08.4 SR 91.8
136 Caitlyn Bing 11 Kenston (OH) 1 27:17.8 PR 91.3
137 Charlotte Herbruck 9 Chardon (OH) 8 27:22.4 91.0
138 Grace Hansen 11 Westlake (CA) 7 27:28 PR 90.7 88
139 Raegan Elliott 9 Madison (ID) 7 27:38.9 PR 90.1 89
140 Karissa Sponseller 11 Hoover (OH) 19 27:42.8 SR 89.9
141 Rose Short 9 Wadsworth (OH) 18 27:47.5 PR 89.7
142 Kat Wilkinson 9 Wadsworth (OH) 19 28:04.4 PR 88.8
143 Aja Kleme 12 No. Royalton (OH) 11 28:05.9 SR 88.7
144 Maddie Roberts 10 Wadsworth (OH) 20 28:06.7 PR 88.6
145 Allison Hook 12 Westlake (CA) 8 28:09 SR 88.5
146 Claire Kirven 11 Wadsworth (OH) 21 28:19 PR 88.0
147 Katrina Kovach 9 Eastlake North (OH) 4 28:22.1 PR 87.8 90
148 Sulina Sisouphanh 12 Wadsworth (OH) 22 28:30 PR 87.4
149 Audrey Nickels 10 Hoover (OH) 20 28:32.4 SR 87.3
150 Luise Ratzenberger 11 Hoover (OH) 21 28:33.9 PR 87.2
151 Helen Chermack 9 Med Highland (OH) 10 28:45.4 PR 86.7
152 Audrie Sponseller 9 Hoover (OH) 22 28:59.7 PR 85.9
153 Kelly Friel 10 Hoover (OH) 23 29:09.3 PR 85.5
154 Dalal Ibrahim 10 No. Royalton (OH) 12 29:12.6 PR 85.3
155 Taylor Adamson 10 Green (OH) 7 29:17.5 SR 85.1 91
156 Emma Chase 11 Nordonia (OH) 6 29:22.2 PR 84.8 92
157 Brooke Snyder 9 Eastlake North (OH) 5 29:28.1 PR 84.6 93
158 Madison Haumesser 10 Wadsworth (OH) 23 29:33.8 PR 84.3
159 Margaret Eibler 11 Kenston (OH) 2 29:45.3 SR 83.7
160 Eva Clark-Hoffma 10 Green (OH) 8 30:00.9 SR 83.0
161 Jamie Baran 12 No. Royalton (OH) 13 30:20.4 SR 82.1
162 Joanna Psaropoulos 12 Westlake (CA) 9 30:23.3 PR 82.0
163 Natalie Alexander 11 Kenston (OH) 3 31:10.7 SR 79.9
164 Liz Dietz 12 No. Royalton (OH) 14 31:10.7 SR 79.9
165 Logan Coleman 9 Westlake (CA) 10 31:26.1 PR 79.3
166 Alexis Freidl 11 Wadsworth (OH) 24 31:42 78.6
167 Shradhdha Kmandepudi 10 Med Highland (OH) 11 32:23.9 PR 76.9
168 Cassie Soos 10 Eastlake North (OH) 6 33:05.9 75.3 94
169 Zalma Compos 9 Normandy (OH) 1 33:42.4 PR 73.9
170 Natalia Daniels 11 Mentor (OH) 7 33:55.8 PR 73.4 95
171 Julia Swain 10 Wadsworth (OH) 25 35:29.3 70.2
172 Kendra Seidel 9 Hoover (OH) 24 35:42.8 69.8
Something wrong on this page? Report it →